DELTA 1 DEB, 29187

Orbit data source: Space-Track

DELTA 1 DEB, 29187 is space debris in LEO originally from a launch on Thu, 11 Jan 1968 UTC launched from the Air Force Western Test Range (AFWTR). Debris objects in space refer to the collection of defunct objects orbiting the Earth. Examples of debris include non-operational satellites, rocket bodies, and fragments generated from explosions, collisions, or faulty payload assembly.

Loading next visibility...
Identifier
29187, 1968-002L
Orbit
LEO
Country
Flag of USUS
Related business
Manufacturer
Unknown
Mission
Spacecraft
Bus & Motor
Unknown
Mass
Unknown
Launch date (UTC)
1968-01-11 (58 years ago)
Launch vehicle
Unknown
Launch site
Air Force Western Test Range (AFWTR)
Object type
Payload
Rocket body
Debris
Shape & HBR
Unknown shape, 0.1 m
Radar Cross Section
Small (<0.1 m²)

Expand to show TLE details & history
Last TLE update: 2 months ago

TLE from 2 months ago
0 DELTA 1 DEB
1 29187U 68002L   25242.75738837  .00000022  00000-0  31065-3 0  9998
2 29187 105.8179 245.9683 0296224 342.3198 197.7294 12.91170721564625
Epoch: 2025-08-30T18:10Z
TLE epoch observation values (Epoch: 2025-08-30T18:10:38.355Z)
Latitude
0.81627°
Longitude
174.35154°
Altitude
1,516.405 km
Speed
7.006 km/s
True Right ascension
04h 24m 47s
True Declination
0° 48' 43"
Sunlit
Object was in daylight at epoch
Visualization orbit readout
Latitude
Unknown
Longitude
Unknown
Altitude
Unknown
Speed
Unknown
Apparent Right ascension
Unknown
Apparent Declination
Unknown
Sunlit
N/A
Visualization observer readout
Local Sidereal Time
18:22:16
Azimuth
Unknown
Elevation
Unknown
Doppler factor
Unknown
Orbital elements
Apogee altitude
1,521.94 km
Perigee altitude
1,067.367 km
Semi-major axis
7,672.791 km
Eccentricity
0.02962
Inclination
105.8179°
RAAN
245.9683°
Arg. of periapsis
342.3198°
True anomaly
196.73102°
Mean anomaly
197.7294°
Eccentric anomaly
197.22676°
Mean motion
3.22934 °/min
Orbital period
111.48 mins
BSTAR
0.00031065
Loading maneuver chart data...
Computing Atmospheric mass density...
Loading historical data...
Loading historical data...
Loading historical data...
Loading historical data...
Loading historical data...
Loading historical data...
Loading historical data...

Documentation

Showing up to 5 results
|